FW3224 Weather Reports


Display with metric or nautical units.
time (UTC)temp
F
wind
direction
speed
MPH
gust
MPH
rain 1hr
in
rain 24hr
in
rain mn
in
humidity
%
barometer
mb
20260906014059 69 149 4.0 11.0 0.00 0.00 0.00 42 1016.1
20260906013602 69 142 4.0 14.0 0.00 0.00 0.00 41 1016.0
20260906013104 69 147 4.0 13.0 0.00 0.00 0.00 41 1016.3
20260906012557 69 149 3.0 10.0 0.00 0.00 0.00 41 1016.3
20260906012057 69 132 5.0 11.0 0.00 0.00 0.00 41 1016.2
20260906011557 69 169 3.0 13.0 0.00 0.00 0.00 41 1016.2
20260906011055 69 179 5.0 12.0 0.00 0.00 0.00 42 1016.2
20260906010555 69 92 4.0 10.0 0.00 0.00 0.00 42 1016.1
20260906010054 69 146 3.0 15.0 0.00 0.00 0.00 43 1016.1
20260906005554 69 192 7.0 15.0 0.00 0.00 0.00 42 1016.1
20260906005054 69 210 3.0 9.0 0.00 0.00 0.00 43 1016.1
20260906004554 69 211 3.0 12.0 0.00 0.00 0.00 43 1016.0
20260906004053 68 221 2.0 12.0 0.00 0.00 0.00 44 1016.0
20260906003553 68 261 4.0 9.0 0.00 0.00 0.00 44 1015.9
20260906003054 68 257 4.0 14.0 0.00 0.00 0.00 44 1016.1
20260906002556 68 269 4.0 14.0 0.00 0.00 0.00 46 1016.0
20260906002052 67 225 4.0 10.0 0.00 0.00 0.00 45 1015.8
20260906001551 67 207 4.0 10.0 0.00 0.00 0.00 44 1015.9
20260906001051 67 219 4.0 10.0 0.00 0.00 0.00 44 1016.0
20260906000553 67 241 4.0 13.0 0.00 0.00 0.00 46 1015.9
20260906000051 67 259 4.0 10.0 0.00 0.00 0.00 46 1015.8
20260905235550 66 242 3.0 10.0 0.00 0.00 0.00 45 1015.9
20260905235050 66 243 3.0 13.0 0.00 0.00 0.00 46 1015.7
20260905234550 66 238 4.0 12.0 0.00 0.00 0.00 45 1015.8
20260905234050 66 216 4.0 8.0 0.00 0.00 0.00 47 1015.8
20260905233549 65 211 5.0 10.0 0.00 0.00 0.00 46 1015.7
20260905233057 65 229 4.0 17.0 0.00 0.00 0.00 46 1015.7
20260905232548 66 186 7.0 16.0 0.00 0.00 0.00 45 1016.0
20260905232048 66 247 2.0 12.0 0.00 0.00 0.00 49 1015.8
20260905231547 65 240 4.0 12.0 0.00 0.00 0.00 47 1015.6
20260905231046 65 332 3.0 11.0 0.00 0.00 0.00 49 1015.6
20260905230546 64 248 5.0 15.0 0.00 0.00 0.00 48 1015.5
20260905230046 64 270 6.0 15.0 0.00 0.00 0.00 47 1015.5
20260905225545 64 250 7.0 14.0 0.00 0.00 0.00 48 1015.4
20260905225045 64 235 4.0 10.0 0.00 0.00 0.00 49 1015.4
20260905224609 64 221 3.0 12.0 0.00 0.00 0.00 50 1015.4
20260905224043 64 221 6.0 13.0 0.00 0.00 0.00 50 1015.3
20260905223544 64 245 5.0 13.0 0.00 0.00 0.00 51 1015.3
20260905223046 63 259 5.0 12.0 0.00 0.00 0.00 50 1015.3
20260905222545 63 276 5.0 12.0 0.00 0.00 0.00 49 1015.2
20260905222046 63 212 4.0 14.0 0.00 0.00 0.00 51 1015.2
20260905221542 63 261 8.0 14.0 0.00 0.00 0.00 49 1015.1
20260905221041 63 231 7.0 13.0 0.00 0.00 0.00 49 1015.1
20260905220541 63 241 4.0 13.0 0.00 0.00 0.00 50 1015.0
20260905220041 63 225 7.0 14.0 0.00 0.00 0.00 50 1014.9
20260905215541 62 252 7.0 15.0 0.00 0.00 0.00 50 1014.9
20260905215039 62 254 7.0 15.0 0.00 0.00 0.00 50 1015.1
20260905214546 62 306 4.0 14.0 0.00 0.00 0.00 50 1014.8
20260905214038 62 251 5.0 16.0 0.00 0.00 0.00 50 1014.8
20260905213540 62 252 5.0 16.0 0.00 0.00 0.00 50 1014.5
20260905213038 62 259 5.0 15.0 0.00 0.00 0.00 50 1014.4
20260905212537 62 254 6.0 15.0 0.00 0.00 0.00 49 1014.4
20260905212039 62 244 5.0 11.0 0.00 0.00 0.00 49 1014.6
20260905211543 62 290 4.0 12.0 0.00 0.00 0.00 50 1014.6
20260905211034 62 239 5.0 12.0 0.00 0.00 0.00 49 1014.5
20260905210533 62 287 3.0 14.0 0.00 0.00 0.00 49 1014.4
20260905210041 62 259 6.0 14.0 0.00 0.00 0.00 48 1014.3
20260905205533 62 234 7.0 12.0 0.00 0.00 0.00 49 1014.0
20260905205033 62 237 5.0 13.0 0.00 0.00 0.00 49 1013.8
20260905204530 62 240 7.0 15.0 0.00 0.00 0.00 48 1013.7
20260905204029 62 279 6.0 11.0 0.00 0.00 0.00 49 1013.7
20260905203528 62 254 4.0 10.0 0.00 0.00 0.00 49 1013.9
20260905203027 62 244 3.0 10.0 0.00 0.00 0.00 49 1013.6
20260905202527 62 235 6.0 10.0 0.00 0.00 0.00 50 1013.4
20260905202025 62 261 5.0 10.0 0.00 0.00 0.00 50 1013.5
20260905201523 62 250 4.0 10.0 0.00 0.00 0.00 49 1013.5
20260905201021 63 235 5.0 11.0 0.00 0.00 0.00 47 1013.3
20260905200527 63 229 4.0 14.0 0.00 0.00 0.00 45 1013.1
20260905200026 63 240 6.0 15.0 0.00 0.00 0.00 44 1012.9
20260905195518 64 273 5.0 15.0 0.00 0.00 0.00 43 1012.9
20260905195018 64 227 5.0 17.0 0.00 0.00 0.00 43 1013.1
20260905194519 64 219 5.0 13.0 0.00 0.00 0.00 43 1013.1
20260905194016 64 261 7.0 15.0 0.00 0.00 0.00 43 1013.0
20260905193514 64 261 7.0 15.0 0.00 0.00 0.00 43 1012.7
20260905193014 64 253 5.0 17.0 0.00 0.00 0.00 44 1012.5
20260905192512 65 246 7.0 25.0 0.00 0.00 0.00 43 1012.4
20260905192011 64 281 8.0 17.0 0.00 0.00 0.00 47 1012.0
20260905191509 64 269 5.0 18.0 0.00 0.00 0.00 48 1011.7
20260905191008 65 256 7.0 18.0 0.00 0.00 0.00 47 1011.4
20260905190507 65 246 9.0 16.0 0.00 0.00 0.00 46 1011.2
20260905190006 65 298 7.0 18.0 0.00 0.00 0.00 45 1011.1
20260905185504 66 213 9.0 23.0 0.00 0.00 0.00 42 1011.2
20260905185003 66 273 10.0 23.0 0.00 0.00 0.00 42 1010.9
20260905184506 66 240 8.0 18.0 0.00 0.00 0.00 42 1011.0
20260905184002 66 233 8.0 17.0 0.00 0.00 0.00 44 1011.0
20260905183503 66 288 8.0 15.0 0.00 0.00 0.00 48 1010.8
20260905183101 66 257 6.0 11.0 0.00 0.00 0.00 51 1010.7
20260905182559 66 245 6.0 17.0 0.00 0.00 0.00 50 1010.7
20260905182058 66 284 7.0 17.0 0.00 0.00 0.00 49 1010.8
20260905181557 66 238 5.0 13.0 0.00 0.00 0.00 48 1010.9
20260905181055 67 201 5.0 13.0 0.00 0.00 0.00 48 1010.9
20260905180556 67 207 5.0 17.0 0.00 0.00 0.00 48 1011.1
20260905175552 68 317 4.0 10.0 0.00 0.00 0.00 48 1011.3
20260905175054 68 242 4.0 11.0 0.00 0.00 0.00 49 1011.1
20260905174549 68 249 3.0 10.0 0.00 0.00 0.00 49 1011.1
20260905174049 68 257 4.0 11.0 0.00 0.00 0.00 49 1011.1
20260905173548 68 242 3.0 18.0 0.00 0.00 0.00 49 1011.0
20260905173149 69 252 5.0 18.0 0.00 0.00 0.00 49 1010.8
20260905172545 69 204 7.0 17.0 0.00 0.00 0.00 50 1010.7
20260905172045 69 261 7.0 23.0 0.00 0.00 0.00 49 1010.5
20260905171545 69 245 10.0 26.0 0.00 0.00 0.00 49 1010.5
20260905171042 69 242 10.0 26.0 0.00 0.00 0.00 51 1010.5
20260905170541 69 243 5.0 11.0 0.00 0.00 0.00 55 1010.4
20260905170044 70 236 5.0 17.0 0.00 0.00 0.00 55 1010.4
20260905165539 70 234 8.0 17.0 0.00 0.00 0.00 54 1010.3
20260905165039 70 227 5.0 16.0 0.00 0.00 0.00 55 1010.2
20260905164537 70 189 6.0 16.0 0.00 0.00 0.00 56 1010.1
20260905164037 70 195 5.0 15.0 0.00 0.00 0.00 56 1010.1
20260905163538 70 187 3.0 11.0 0.00 0.00 0.00 57 1010.0
20260905163035 70 188 3.0 11.0 0.00 0.00 0.00 56 1010.0
20260905162534 70 245 5.0 14.0 0.00 0.00 0.00 56 1009.9
20260905162033 70 220 4.0 14.0 0.00 0.00 0.00 57 1009.9
20260905161534 70 236 5.0 13.0 0.00 0.00 0.00 56 1009.9
20260905161031 70 207 6.0 13.0 0.00 0.00 0.00 56 1009.8
20260905160530 70 227 6.0 11.0 0.00 0.00 0.00 57 1009.8
20260905160028 70 224 5.0 11.0 0.00 0.00 0.00 57 1009.6
20260905155530 71 251 5.0 12.0 0.00 0.00 0.00 56 1009.5
20260905155026 71 267 6.0 12.0 0.00 0.00 0.00 56 1009.4
20260905154526 71 227 4.0 13.0 0.00 0.00 0.00 56 1009.4
20260905154032 71 238 5.0 13.0 0.00 0.00 0.00 56 1009.4
20260905153525 71 207 4.0 12.0 0.00 0.00 0.00 56 1009.3
20260905153025 71 279 6.0 12.0 0.00 0.00 0.00 56 1009.2
20260905152525 71 288 4.0 12.0 0.00 0.00 0.00 56 1009.2
20260905152022 71 238 5.0 12.0 0.00 0.00 0.00 56 1009.2
20260905151522 71 277 6.0 11.0 0.00 0.00 0.00 56 1009.2
20260905151020 71 288 5.0 9.0 0.00 0.00 0.00 57 1009.3
20260905150523 71 244 5.0 14.0 0.00 0.00 0.00 56 1009.2
20260905150020 71 257 6.0 14.0 0.00 0.00 0.00 56 1009.3
20260905145519 71 281 8.0 15.0 0.00 0.00 0.00 56 1009.2
20260905145019 71 266 4.0 14.0 0.00 0.00 0.00 57 1009.2
20260905144523 71 237 5.0 14.0 0.00 0.00 0.00 57 1009.2
20260905144017 71 254 4.0 7.0 0.00 0.00 0.00 56 1009.1
20260905143516 72 231 2.0 9.0 0.00 0.00 0.00 55 1009.2
20260905143018 72 246 4.0 10.0 0.00 0.00 0.00 55 1009.1
20260905142515 72 241 5.0 10.0 0.00 0.00 0.00 55 1009.1
20260905142014 72 298 4.0 10.0 0.00 0.00 0.00 55 1008.9
20260905141512 72 271 3.0 8.0 0.00 0.00 0.00 56 1008.9
20260905141013 72 275 4.0 13.0 0.00 0.00 0.00 56 1008.7
20260905140513 71 290 7.0 13.0 0.00 0.00 0.00 56 1008.7
20260905140009 71 285 5.0 10.0 0.00 0.00 0.00 57 1008.6
20260905135509 71 279 5.0 10.0 0.00 0.00 0.00 58 1008.6
20260905135008 71 288 5.0 10.0 0.00 0.00 0.00 59 1008.5
20260905134508 71 281 4.0 10.0 0.00 0.00 0.00 59 1008.5
20260905134008 71 271 2.0 8.0 0.00 0.00 0.00 59 1008.4
20260905133508 71 297 3.0 8.0 0.00 0.00 0.00 58 1008.4
20260905133008 72 277 3.0 9.0 0.00 0.00 0.00 58 1008.5
20260905132508 72 281 5.0 10.0 0.00 0.00 0.00 57 1008.3
20260905132008 72 281 3.0 10.0 0.00 0.00 0.00 57 1008.3
20260905131508 72 259 3.0 13.0 0.00 0.00 0.00 57 1008.6
20260905131010 72 293 6.0 13.0 0.00 0.00 0.00 57 1008.6
20260905130507 72 275 3.0 10.0 0.00 0.00 0.00 57 1008.6
20260905130007 72 311 3.0 8.0 0.00 0.00 0.00 57 1008.5
20260905125507 72 287 2.0 13.0 0.00 0.00 0.00 57 1008.4
20260905125007 72 300 6.0 13.0 0.00 0.00 0.00 57 1008.4
20260905124506 72 289 6.0 12.0 0.00 0.00 0.00 57 1008.4
20260905124007 72 280 7.0 15.0 0.00 0.00 0.00 57 1008.4
20260905123507 72 238 6.0 14.0 0.00 0.00 0.00 57 1008.4
20260905123006 72 270 7.0 15.0 0.00 0.00 0.00 58 1008.4
20260905122507 72 257 6.0 15.0 0.00 0.00 0.00 58 1008.4
20260905122005 72 305 6.0 18.0 0.00 0.00 0.00 57 1008.4
20260905121504 72 229 8.0 15.0 0.00 0.00 0.00 57 1008.5
20260905121004 72 226 8.0 15.0 0.00 0.00 0.00 57 1008.4
20260905120508 72 292 8.0 15.0 0.00 0.00 0.00 58 1008.4
20260905120004 73 282 7.0 15.0 0.00 0.00 0.00 57 1008.4
20260905115504 73 257 8.0 16.0 0.00 0.00 0.00 57 1008.4
20260905115007 73 284 6.0 16.0 0.00 0.00 0.00 57 1008.3
20260905114504 73 282 6.0 19.0 0.00 0.00 0.00 57 1008.4
20260905114004 73 275 9.0 19.0 0.00 0.00 0.00 57 1008.3
20260905113504 73 257 8.0 18.0 0.00 0.00 0.00 56 1008.4
20260905113004 73 257 8.0 16.0 0.00 0.00 0.00 56 1008.4
20260905112503 73 264 9.0 20.0 0.00 0.00 0.00 56 1008.3
20260905112004 74 252 9.0 21.0 0.00 0.00 0.00 55 1008.6
20260905111505 74 281 13.0 21.0 0.00 0.00 0.00 54 1008.6
20260905111003 74 284 10.0 19.0 0.00 0.00 0.00 54 1008.6
20260905110502 74 288 10.0 20.0 0.00 0.00 0.00 53 1008.8
20260905110002 75 274 12.0 23.0 0.00 0.00 0.00 52 1008.7
20260905105502 75 295 12.0 23.0 0.00 0.00 0.00 52 1008.7
20260905105002 75 240 10.0 26.0 0.00 0.00 0.00 52 1008.7
20260905104501 75 280 12.0 26.0 0.00 0.00 0.00 52 1008.8
20260905104004 74 279 10.0 22.0 0.00 0.00 0.00 53 1008.8
20260905103505 75 274 10.0 26.0 0.00 0.00 0.00 53 1008.9
20260905103006 75 264 10.0 26.0 0.00 0.00 0.00 53 1008.8
20260905102501 75 263 11.0 20.0 0.00 0.00 0.00 52 1008.8
20260905102001 75 249 8.0 20.0 0.00 0.00 0.00 53 1008.9
20260905101607 75 254 9.0 22.0 0.00 0.00 0.00 53 1009.0
20260905101502 75 236 10.0 22.0 0.00 0.00 0.00 52 1009.0
20260905101100 74 270 14.0 22.0 0.00 0.00 0.00 53 1009.1
20260905100600 75 262 11.0 28.0 0.00 0.00 0.00 54 1009.6
20260905100201 75 287 16.0 28.0 0.00 0.00 0.00 53 1010.1
20260905095559 75 248 10.0 25.0 0.00 0.00 0.00 52 1010.2
20260905095059 75 289 11.0 25.0 0.00 0.00 0.00 52 1010.2
20260905094559 75 238 13.0 25.0 0.00 0.00 0.00 54 1010.5
20260905094058 74 289 7.0 17.0 0.00 0.00 0.00 56 1010.6
20260905093558 74 263 9.0 17.0 0.00 0.00 0.00 56 1010.6
20260905093059 74 285 9.0 17.0 0.00 0.00 0.00 56 1010.8
20260905092601 74 237 8.0 18.0 0.00 0.00 0.00 57 1010.9
20260905092058 74 293 10.0 18.0 0.00 0.00 0.00 57 1010.7
20260905091606 74 227 9.0 17.0 0.00 0.00 0.00 58 1010.8
20260905091100 74 267 7.0 24.0 0.00 0.00 0.00 58 1010.5
20260905090601 74 287 8.0 26.0 0.00 0.00 0.00 58 1010.4
20260905090057 75 256 10.0 26.0 0.00 0.00 0.00 57 1010.6
20260905085557 74 252 11.0 19.0 0.00 0.00 0.00 56 1010.4
20260905085057 74 287 8.0 19.0 0.00 0.00 0.00 57 1010.5
20260905084600 75 248 9.0 18.0 0.00 0.00 0.00 56 1010.6
20260905084057 74 259 7.0 21.0 0.00 0.00 0.00 58 1010.5
20260905083557 75 276 10.0 21.0 0.00 0.00 0.00 56 1010.5
20260905083109 75 285 4.0 13.0 0.00 0.00 0.00 54 1010.3
20260905082556 76 249 5.0 12.0 0.00 0.00 0.00 53 1010.0
20260905082056 76 159 5.0 14.0 0.00 0.00 0.00 53 1009.8
20260905081555 77 225 3.0 14.0 0.00 0.00 0.00 51 1009.7
20260905081055 77 200 4.0 14.0 0.00 0.00 0.00 50 1009.9
20260905080555 77 85 5.0 20.0 0.00 0.00 0.00 50 1009.8
20260905080055 77 272 7.0 20.0 0.00 0.00 0.00 49 1009.7
20260905075556 77 186 8.0 20.0 0.00 0.00 0.00 49 1009.7
20260905075054 78 150 10.0 18.0 0.00 0.00 0.00 47 1009.6
20260905074555 80 236 6.0 23.0 0.00 0.00 0.00 45 1009.4
20260905074057 82 165 8.0 21.0 0.00 0.00 0.00 41 1009.3
20260905073554 84 224 4.0 13.0 0.00 0.00 0.00 34 1008.4
20260905073057 84 275 7.0 13.0 0.00 0.00 0.00 33 1007.7
20260905072558 84 274 6.0 15.0 0.00 0.00 0.00 33 1007.6
20260905072057 84 264 5.0 18.0 0.00 0.00 0.00 33 1007.5
20260905071555 85 246 8.0 18.0 0.00 0.00 0.00 33 1007.4
20260905071053 85 275 8.0 22.0 0.00 0.00 0.00 32 1007.3
20260905070553 85 268 11.0 22.0 0.00 0.00 0.00 32 1007.3
20260905070054 85 286 9.0 16.0 0.00 0.00 0.00 32 1007.2
20260905065552 85 252 7.0 16.0 0.00 0.00 0.00 32 1007.1
20260905065052 86 300 5.0 19.0 0.00 0.00 0.00 32 1007.0
20260905064611 86 262 8.0 23.0 0.00 0.00 0.00 32 1007.0
20260905064052 86 249 13.0 27.0 0.00 0.00 0.00 31 1006.8
20260905063551 86 261 11.0 27.0 0.00 0.00 0.00 31 1006.6
20260905063054 86 302 11.0 30.0 0.00 0.00 0.00 31 1006.6
20260905062551 86 247 15.0 30.0 0.00 0.00 0.00 31 1006.6
20260905062051 86 242 14.0 30.0 0.00 0.00 0.00 31 1006.6
20260905061551 86 284 11.0 30.0 0.00 0.00 0.00 31 1006.7
20260905061050 86 263 17.0 30.0 0.00 0.00 0.00 31 1006.6
20260905060553 86 250 12.0 24.0 0.00 0.00 0.00 31 1006.6
20260905060051 87 273 11.0 24.0 0.00 0.00 0.00 31 1006.7
20260905055551 87 220 10.0 18.0 0.00 0.00 0.00 31 1006.5
20260905055050 87 268 11.0 26.0 0.00 0.00 0.00 31 1006.4
20260905054644 86 217 13.0 26.0 0.00 0.00 0.00 31 1006.5
20260905054050 87 261 12.0 25.0 0.00 0.00 0.00 30 1006.5
20260905053550 87 297 12.0 26.0 0.00 0.00 0.00 30 1006.5
20260905053050 87 257 14.0 26.0 0.00 0.00 0.00 30 1006.5
20260905052549 87 287 12.0 23.0 0.00 0.00 0.00 30 1006.6
20260905052049 87 241 11.0 23.0 0.00 0.00 0.00 30 1006.6
20260905051548 87 309 11.0 19.0 0.00 0.00 0.00 30 1006.7
20260905051047 87 272 9.0 28.0 0.00 0.00 0.00 30 1006.7
20260905050547 87 242 10.0 28.0 0.00 0.00 0.00 30 1006.8
20260905050047 87 265 10.0 26.0 0.00 0.00 0.00 30 1006.9
20260905045546 87 253 12.0 26.0 0.00 0.00 0.00 30 1006.8
20260905045046 87 241 11.0 26.0 0.00 0.00 0.00 30 1007.0
20260905044602 87 259 11.0 26.0 0.00 0.00 0.00 30 1006.9
20260905044045 87 260 15.0 26.0 0.00 0.00 0.00 29 1007.0
20260905043545 87 234 13.0 25.0 0.00 0.00 0.00 30 1007.1
20260905043044 88 250 8.0 24.0 0.00 0.00 0.00 30 1007.1
20260905042543 87 256 14.0 24.0 0.00 0.00 0.00 29 1007.3
20260905042043 88 272 11.0 25.0 0.00 0.00 0.00 30 1007.4
20260905041542 87 260 10.0 25.0 0.00 0.00 0.00 30 1007.5
20260905041041 88 265 11.0 22.0 0.00 0.00 0.00 30 1007.5
20260905040542 88 247 8.0 20.0 0.00 0.00 0.00 31 1007.7
20260905040040 88 227 8.0 20.0 0.00 0.00 0.00 31 1007.8
20260905035538 87 238 5.0 18.0 0.00 0.00 0.00 33 1007.8
20260905035037 86 248 10.0 23.0 0.00 0.00 0.00 33 1007.9
20260905034536 86 292 11.0 23.0 0.00 0.00 0.00 34 1008.2
20260905034035 85 236 8.0 14.0 0.00 0.00 0.00 36 1008.2
20260905033533 85 284 4.0 13.0 0.00 0.00 0.00 37 1008.4
20260905033038 84 275 7.0 14.0 0.00 0.00 0.00 36 1008.5
20260905032531 84 248 5.0 14.0 0.00 0.00 0.00 37 1008.8
20260905032029 84 257 4.0 12.0 0.00 0.00 0.00 39 1008.9
20260905031530 84 338 2.0 10.0 0.00 0.00 0.00 40 1009.0
20260905031028 84 290 3.0 10.0 0.00 0.00 0.00 39 1009.2
20260905030526 83 257 2.0 11.0 0.00 0.00 0.00 38 1009.3
20260905030032 83 331 4.0 11.0 0.00 0.00 0.00 38 1009.5
20260905025523 83 355 4.0 12.0 0.00 0.00 0.00 38 1009.7
20260905025022 83 267 5.0 12.0 0.00 0.00 0.00 37 1009.9
20260905024520 83 351 2.0 11.0 0.00 0.00 0.00 38 1010.1
20260905024019 82 299 4.0 12.0 0.00 0.00 0.00 38 1010.3
20260905023518 81 321 5.0 16.0 0.00 0.00 0.00 38 1010.4
20260905023017 82 292 6.0 16.0 0.00 0.00 0.00 37 1010.5
20260905022515 82 304 4.0 11.0 0.00 0.00 0.00 37 1010.7
20260905022015 82 311 6.0 10.0 0.00 0.00 0.00 37 1010.9
20260905021512 81 300 5.0 14.0 0.00 0.00 0.00 37 1011.0
20260905021011 81 308 6.0 14.0 0.00 0.00 0.00 37 1011.2
20260905020510 81 317 7.0 15.0 0.00 0.00 0.00 37 1011.3
20260905020010 81 277 8.0 18.0 0.00 0.00 0.00 37 1011.3
20260905015511 81 280 6.0 13.0 0.00 0.00 0.00 36 1011.5
20260905015008 81 262 5.0 13.0 0.00 0.00 0.00 37 1011.5
20260905014506 81 323 5.0 13.0 0.00 0.00 0.00 37 1011.7